sat.trackr.live / text

‹ back to catalog

STARLINK-35351

NORAD 65668 · 2025-211S

PAYLOAD ACTIVE UNKNOWN

§ Identity

Operator
Country
US
Launch date
2025-09-19
Launch site
AFWTR
Launch vehicle
Mass (kg)
RCS (m²)

Purposes: comms

External: N2YO · Heavens-Above · Gunter

§ Orbital elements

Epoch: 2026-09-20T14:43:36.223680Z

Period
93.91 min
Inclination
97.2842°
Eccentricity
0.0001298
Mean motion
15.33443559 rev/d
Perigee alt
464.7 km
Apogee alt
466.4 km
Semi-major
6,843.7 km
B*
5.5485e-4
RAAN
303.8873°
Arg perigee
90.6556°
Mean anomaly
269.4836°
Rev number
5,654

§ Raw data

STARLINK-353511 65668U 25211S   26263.61361370  .00017879  00000+0  55485-3 0  99992 65668  97.2842 303.8873 0001298  90.6556 269.4836 15.33443559 56548

JSON: /api/v1/satellites/65668 · /tle

For live sub-satellite position, see the globe view (requires WebGL).

§ Visibility from observer

Set your observer location to see the next 7 days of passes ≥ 10°. The values pass through the URL so the page stays shareable.

No JS? Fill the form by hand. The geolocation button needs JavaScript.